Theta_e
315 315 316 316 316 317 318 318 319 318 318 320 321 322 322 322 320 312 306 310 313 320 317 306 304 301 302 300 302 300 289 287 288 288 290 297 296 299 300 303 302 305 313 317 328
313 313 313 314 314 315 315 316 317 317 318 318 320 321 322 321 311 306 316 320 319 319 305 302 299 299 296 298 298 294 288 291 293 294 293 296 295 297 297 298 300 311 321 325 329
310 310 311 311 312 312 313 314 314 315 316 318 319 321 321 319 304 303 318 317 318 315 307 303 301 299 294 297 297 295 291 293 294 296 297 296 294 296 296 294 300 311 319 324 326
308 309 309 310 310 311 312 312 313 314 315 317 319 320 320 312 293 302 316 315 315 307 304 301 298 294 292 293 297 291 296 294 297 297 297 295 296 294 296 297 300 310 323 324 325
308 308 308 309 309 310 312 314 315 316 317 318 319 319 310 300 301 302 314 310 305 304 300 299 296 294 291 293 293 293 295 295 296 296 295 296 294 293 295 299 299 300 308 320 324
307 307 307 308 309 311 312 314 315 317 317 318 318 319 304 295 301 301 301 302 302 300 298 298 297 298 294 293 292 294 294 293 294 295 295 294 292 293 297 299 298 298 303 311 319
306 306 306 307 309 310 312 313 315 318 318 317 316 313 299 298 300 300 301 301 301 301 298 300 300 296 295 293 295 294 290 291 292 294 293 294 290 291 297 297 297 297 298 303 310
305 305 305 306 308 310 312 314 316 319 317 314 313 303 295 303 299 300 300 299 302 303 301 301 301 297 295 295 293 290 288 284 292 293 293 293 288 294 297 296 295 295 296 297 299
304 305 305 306 309 311 312 313 315 316 314 313 302 298 294 305 298 299 298 296 299 300 300 301 298 293 291 287 284 285 282 285 289 293 290 289 286 292 294 294 294 293 292 294 295
304 304 305 307 308 311 310 311 310 306 304 306 302 291 298 295 298 298 298 298 296 296 295 293 291 286 285 284 279 282 282 284 285 289 288 285 285 291 292 292 292 292 291 291 292
304 305 306 308 309 307 302 297 293 291 295 290 292 292 295 300 301 298 298 296 295 293 286 289 283 280 284 287 288 288 284 283 287 290 288 286 287 290 292 290 289 290 291 292 293
304 305 306 308 308 306 298 293 294 299 289 294 295 295 298 299 295 297 297 290 289 285 287 285 281 286 288 287 286 286 283 282 287 290 287 286 286 289 291 290 293 293 291 292 293
303 305 307 308 305 298 293 293 300 301 286 290 296 293 293 296 292 292 294 292 287 284 285 283 286 290 287 285 284 284 282 281 283 287 287 284 285 287 291 293 293 294 295 294 294
303 304 307 307 296 294 291 295 298 300 278 285 290 292 292 294 289 295 294 290 290 286 286 286 289 287 287 285 285 281 287 287 285 283 278 285 279 286 289 291 291 295 294 295 294
302 303 305 304 293 289 292 295 296 292 262 284 289 296 290 287 290 291 293 291 286 287 287 284 286 286 285 286 289 286 288 286 286 282 279 281 275 283 289 289 291 292 294 294 296
301 302 304 294 290 291 293 294 291 270 262 280 286 282 281 284 287 290 290 291 290 287 288 287 290 290 288 289 287 291 289 288 285 279 272 283 281 284 287 289 291 293 293 294 294
301 301 299 295 286 294 293 287 270 265 277 276 278 280 280 279 281 282 283 282 279 278 278 284 284 290 289 285 289 289 284 278 276 275 275 281 278 285 288 289 290 292 293 294 292
300 300 296 296 294 292 288 277 263 267 273 281 279 279 278 278 278 278 277 274 283 283 278 278 275 285 289 285 284 284 285 279 272 273 275 279 278 283 288 291 292 293 293 292 290
298 289 291 291 294 292 282 268 269 276 278 277 278 275 274 277 276 275 274 275 282 282 275 275 277 286 287 287 287 284 281 285 279 279 277 279 281 287 288 287 287 287 288 288 288
286 284 287 292 292 286 276 274 275 279 280 279 273 275 270 273 272 272 272 279 278 279 281 278 272 282 285 287 287 285 288 279 280 273 272 277 276 280 283 284 286 286 285 285 287
283 280 287 291 288 279 267 264 278 280 279 277 274 273 274 271 272 270 271 278 279 277 279 279 274 276 282 279 279 281 280 282 283 280 275 275 274 283 281 283 284 285 285 285 286
281 270 286 287 273 263 264 271 279 277 278 278 276 275 274 273 272 272 271 275 279 278 273 277 276 270 275 280 284 283 281 282 276 275 279 279 279 288 289 288 288 287 286 285 286
276 274 286 282 265 261 270 276 278 276 276 276 274 276 275 273 263 272 271 277 279 276 274 278 269 266 268 272 277 275 276 278 278 281 276 274 278 288 289 287 289 288 289 286 286
276 269 273 275 275 273 265 268 268 278 277 277 276 277 274 272 274 264 271 276 278 277 282 279 273 268 264 268 272 270 274 275 273 273 275 277 279 284 286 286 287 288 289 289 286
274 270 274 263 268 273 274 271 268 268 276 277 274 274 273 263 270 265 270 274 276 279 277 273 261 269 270 273 272 273 272 273 271 273 273 276 276 280 283 285 287 290 291 291 289
271 271 275 270 276 274 273 271 273 273 274 272 273 275 274 264 271 268 272 273 272 275 273 275 265 267 265 270 272 271 273 272 274 277 277 278 278 280 282 283 286 289 289 288 289
280 281 280 274 273 269 270 274 275 276 277 277 275 274 273 275 277 277 277 277 276 273 272 270 269 259 262 268 264 261 268 273 275 276 277 274 276 280 279 280 282 283 284 286 287
Wind_Speed
20 19 19 20 19 19 20 20 20 19 18 17 18 16 15 15 16 3 6 3 3 2 2 3 2 3 2 2 3 4 1 4 5 6 5 1 2 1 1 5 2 1 7 6 14
20 20 19 18 19 20 19 19 21 20 20 18 18 17 17 14 3 6 2 1 1 3 2 1 2 1 2 3 2 4 3 7 3 2 3 2 2 3 3 3 2 2 4 10 15
20 20 21 21 21 19 19 20 19 20 20 19 18 17 17 11 4 1 0 1 1 0 1 2 2 2 3 3 4 5 6 4 2 1 4 3 1 3 6 4 6 8 8 11 9
22 23 22 22 22 24 23 21 20 20 18 18 18 17 16 2 3 1 1 2 3 2 1 2 3 3 4 6 5 4 8 6 4 1 2 3 6 4 6 5 4 11 15 13 13
23 24 25 24 23 24 24 23 20 19 18 16 16 13 6 3 6 1 2 4 2 1 2 2 2 2 4 3 3 5 4 3 3 3 4 1 5 5 8 7 5 5 8 13 15
24 25 25 26 27 25 24 24 24 20 17 15 11 6 1 3 2 1 3 3 2 1 2 3 2 1 4 4 3 3 3 6 6 5 4 5 2 4 9 10 8 7 11 11 12
25 25 26 26 26 27 27 26 24 19 15 9 5 1 0 8 4 4 4 4 2 2 4 2 2 2 2 4 4 3 6 6 6 5 6 4 7 13 11 2 10 10 9 11 13
26 26 26 27 27 26 28 28 23 12 5 5 4 1 4 4 5 5 7 5 4 2 1 4 2 3 2 4 4 2 1 2 4 9 5 9 13 9 9 9 14 9 10 9 9
27 28 27 27 25 27 30 25 13 6 8 3 4 4 6 6 6 7 5 6 6 3 2 1 2 3 1 1 4 3 5 6 6 8 5 7 7 6 4 7 12 9 9 9 9
27 28 27 26 23 23 29 16 11 12 14 1 3 3 6 9 6 7 5 5 4 5 4 1 2 1 2 4 10 8 7 6 7 6 4 5 12 12 7 4 9 9 9 9 9
28 27 27 26 19 21 15 6 9 11 10 2 7 3 7 11 5 8 6 7 5 3 4 2 2 7 11 12 6 4 5 7 3 3 5 9 15 17 11 6 9 9 9 10 14
30 29 27 26 15 15 10 8 7 4 9 5 7 5 7 6 3 8 6 7 5 5 7 5 7 10 6 7 8 12 10 10 8 3 5 7 14 12 12 10 14 14 12 12 7
30 28 27 25 5 6 6 7 8 8 2 8 4 3 4 5 5 7 5 1 2 6 7 8 8 5 3 8 10 11 13 5 11 2 4 4 17 10 10 14 10 14 16 14 15
28 27 26 25 7 5 3 11 12 5 4 8 6 6 12 5 3 3 3 1 3 3 6 9 6 11 15 11 5 12 8 12 11 4 8 3 15 10 6 17 13 19 17 17 17
28 25 23 15 3 4 8 13 9 3 7 10 5 4 10 6 8 10 5 5 4 3 4 8 10 14 12 6 8 8 7 6 6 6 3 6 1 5 6 13 11 13 16 19 18
28 24 20 5 4 3 11 9 3 11 4 8 7 11 12 8 8 10 9 5 4 4 8 14 5 5 7 11 3 4 1 10 6 2 4 24 12 22 12 9 7 8 10 13 12
27 22 8 3 8 13 8 3 9 8 6 9 7 12 6 11 8 12 10 8 5 7 7 14 10 5 4 5 3 3 2 3 5 5 8 4 9 23 4 4 6 9 11 9 7
28 12 6 2 9 8 4 8 10 5 3 5 7 11 4 13 7 14 9 10 11 12 10 8 8 8 7 3 2 2 4 6 6 5 6 3 10 16 4 9 13 11 10 5 8
17 5 4 8 10 3 6 9 4 2 5 6 8 5 6 7 5 11 6 3 12 18 11 8 6 14 12 4 6 2 5 4 7 3 4 5 7 11 6 7 9 9 6 6 6
2 4 4 15 9 5 8 5 3 4 5 2 3 4 5 6 6 6 4 3 7 13 11 6 15 5 6 4 5 3 3 4 3 5 7 3 4 5 15 17 14 11 5 1 4
4 4 5 15 5 8 6 4 3 4 7 4 4 4 3 5 4 3 5 6 12 14 13 10 6 11 7 2 1 3 3 5 5 4 5 3 3 6 7 12 18 12 7 2 4
3 4 6 7 8 2 2 1 4 4 3 2 3 2 2 6 5 3 3 3 15 9 6 6 7 9 16 18 12 6 11 12 6 4 5 6 7 5 12 15 19 20 12 2 2
3 2 5 5 5 3 5 2 1 2 2 2 2 0 1 3 4 4 4 7 7 12 6 8 5 8 13 7 9 6 12 15 20 4 9 8 2 4 9 16 19 20 22 10 3
4 5 6 6 1 5 2 3 3 3 3 3 3 1 1 3 5 6 8 6 10 11 20 2 3 6 9 12 9 17 16 15 10 9 6 7 11 9 15 14 12 17 17 17 7
3 3 4 3 4 1 2 4 2 2 3 3 1 3 5 3 7 6 6 12 8 13 4 0 6 11 14 12 15 18 19 21 19 16 9 10 15 19 18 17 14 9 4 10 5
3 3 3 2 2 2 2 4 5 4 4 4 6 9 5 6 9 15 11 9 10 6 8 3 9 8 15 17 13 19 15 21 18 7 9 12 11 16 17 20 16 13 6 9 8
1 1 3 4 2 4 5 6 5 3 6 8 6 5 8 13 9 10 10 13 15 18 18 6 7 0 16 10 5 7 9 11 13 6 8 5 8 15 20 22 15 17 18 16 16
Wind_Direction
16 13 6 360 357 351 345 341 339 337 332 327 324 321 317 316 315 222 219 218 224 293 293 304 311 262 206 252 217 111 58 246 251 170 249 291 158 335 245 118 68 352 162 190 158
8 3 359 355 349 344 341 338 333 329 328 326 323 319 318 321 251 238 198 163 189 308 265 47 311 226 271 224 221 131 179 225 237 268 238 280 178 173 128 123 50 39 27 135 150
5 1 356 350 344 341 335 331 327 324 323 323 320 318 320 320 315 275 259 286 259 12 143 300 279 268 260 180 205 183 213 232 260 274 325 308 294 310 130 241 202 176 154 146 161
2 358 357 350 344 337 334 328 324 321 319 318 317 318 319 246 293 51 318 305 299 275 163 239 209 192 241 223 206 204 228 228 274 212 298 268 319 273 187 225 186 180 162 163 169
360 356 352 348 343 337 330 326 324 318 315 314 313 316 337 314 261 129 314 324 295 300 248 178 194 210 237 268 273 229 255 280 314 229 248 289 258 266 267 223 193 164 189 183 181
358 354 350 347 341 338 331 325 322 314 312 315 314 313 274 255 19 344 342 346 350 330 303 216 207 138 274 258 221 331 293 281 284 238 252 227 235 137 249 223 220 187 199 197 192
356 354 349 346 341 337 330 328 322 315 316 330 352 291 28 253 351 325 323 323 323 5 322 15 333 262 340 280 331 324 311 315 238 222 240 174 275 227 234 204 235 207 212 206 200
355 354 349 346 342 337 328 328 326 334 347 358 36 83 256 314 314 2 336 320 305 273 226 304 352 282 230 302 333 299 202 287 270 175 231 140 262 253 237 199 231 210 210 200 223
355 352 350 350 345 337 328 333 339 10 5 356 51 60 332 324 22 324 352 319 309 314 298 320 15 212 2 132 348 311 253 223 299 197 136 177 251 258 301 209 226 216 209 213 225
357 350 349 351 348 341 333 343 7 33 345 36 49 44 20 317 336 328 312 330 322 326 338 96 75 260 31 134 222 209 227 241 222 210 176 207 249 264 265 226 233 224 219 216 221
355 354 352 347 354 2 351 16 14 1 27 65 284 223 263 298 324 344 342 343 339 353 301 291 149 212 216 224 244 250 244 246 246 218 191 235 245 250 261 256 253 244 234 229 222
354 353 352 348 357 21 20 60 28 319 320 293 257 247 251 285 311 348 19 26 0 313 336 326 265 247 234 247 260 268 273 262 284 273 203 269 262 251 243 235 227 233 234 232 225
353 349 346 346 18 44 59 64 329 339 246 298 272 354 315 341 331 310 6 333 330 326 301 249 269 358 197 255 255 251 248 259 246 287 256 341 278 245 248 238 231 231 226 228 218
354 348 348 345 41 335 31 341 328 319 71 336 340 5 356 310 311 267 329 39 356 280 335 279 332 314 288 265 222 260 213 237 239 145 245 160 274 219 215 236 225 234 222 223 218
350 347 346 13 295 33 299 315 307 81 58 305 0 341 322 358 289 7 348 347 279 269 74 259 295 304 311 296 257 258 327 272 228 197 92 223 311 252 195 239 235 235 227 222 220
347 343 343 358 1 273 313 305 54 43 271 326 2 345 355 5 355 342 2 350 270 294 228 258 280 262 230 233 244 307 265 316 347 81 206 237 192 274 231 229 235 240 233 224 214
345 337 351 355 322 322 310 46 39 94 312 328 342 336 352 348 341 8 357 12 349 325 341 302 275 270 267 271 254 136 100 252 222 205 238 160 175 243 256 289 263 260 263 242 197
341 341 318 281 317 317 30 51 72 249 307 360 340 312 52 20 355 347 6 351 28 14 311 328 329 359 344 350 155 278 262 227 243 205 241 136 211 245 223 261 264 247 252 264 194
345 338 0 324 333 353 66 54 171 175 310 317 321 18 347 22 333 1 339 327 34 26 356 300 277 324 288 248 147 98 247 322 298 241 251 199 277 298 2 327 320 308 300 262 187
4 350 328 333 336 47 67 110 125 30 305 343 18 25 344 357 20 6 308 41 9 18 355 309 301 295 296 333 246 197 145 300 263 251 254 242 280 265 358 337 325 304 287 132 104
38 34 280 336 33 44 94 206 50 9 22 357 15 340 336 355 332 254 272 335 29 354 352 295 234 292 326 257 282 321 280 232 245 258 301 295 240 349 355 351 346 321 314 305 105
29 31 309 354 51 19 77 182 347 5 349 338 59 7 351 336 302 300 274 311 347 356 334 278 300 289 278 280 296 271 266 258 265 250 286 289 257 340 18 11 6 3 335 297 159
33 272 324 50 82 343 318 349 317 344 322 9 338 234 61 315 331 295 346 302 319 348 343 336 319 316 330 0 31 348 322 342 329 253 238 242 302 311 34 14 2 352 349 328 299
54 14 333 34 123 116 99 286 311 266 252 215 262 251 24 273 234 271 289 300 322 292 306 1 271 278 275 284 298 295 319 318 317 295 329 276 304 320 330 332 356 332 339 332 4
43 261 178 307 329 112 162 193 229 305 246 203 290 198 285 267 284 248 288 298 291 292 308 251 232 284 267 259 284 271 294 311 303 268 263 297 308 324 322 310 303 254 235 304 354
114 89 356 239 265 160 248 250 209 253 196 247 238 269 258 198 251 290 289 289 286 283 279 218 272 271 286 286 264 283 285 288 289 300 283 285 274 351 339 354 328 298 204 274 210
237 3 121 256 206 111 225 212 219 193 263 253 232 275 266 262 269 265 269 270 260 275 273 264 259 243 271 286 310 296 243 256 276 30 321 356 354 349 352 341 348 41 18 2 343